Butler, PA

2:23 AM EDT on September 20, 2019 (GMT -0400)
Butler County-Scholter

Weather History for KBTP - August, 2019

Change the Weather History Date:

Tuesday, August 20, 2019

  Actual Average Record
Temperature  
Mean Temperature 75 °F -  
Max Temperature 87 °F 77 °F 91 °F (2005)
Min Temperature 64 °F 58 °F 42 °F (1977)
Cooling Degree Days 10    
Growing Degree Days 25 (Base 50)    
Moisture  
Dew Point 67 °F    
Average Humidity 84    
Maximum Humidity 100    
Minimum Humidity 55    
Precipitation  
Precipitation 0.00 in - - ()
Sea Level Pressure  
Sea Level Pressure 30.08 in    
Wind  
Wind Speed 3 mph (East)    
Max Wind Speed 16 mph    
Max Gust Speed 29 mph    
Visibility 8 miles    
Events Rain , Thunderstorm    
Averages and records for this station are not official NWS values.
T = Trace of Precipitation, MM = Missing Value Source: NWS Daily Summary

Daily Weather History Graph

Daily Weather History Graph

Search for Another Location

Airport or City:

Astronomy

Aug. 20, 2019 Rise Set
Actual Time 6:34 AM EDT 8:11 PM EDT
Civil Twilight 6:05 AM EDT 8:39 PM EDT
Nautical Twilight 5:30 AM EDT 9:14 PM EDT
Astronomical Twilight 4:53 AM EDT 9:52 PM EDT
Moon 10:57 PM EDT 11:12 AM EDT
Length of Visible Light 14h 34m
Length of Day
13h 36m
Waning Gibbous, 78% of the Moon is Illuminated
Aug 20
Waning Gibbous
Aug 23
Last Quarter
Aug 30
New
Sep 5
First Quarter
Sep 14
Full

Hourly Weather History & Observations

Time (EDT) Temp. Heat Index Dew Point Humidity Pressure Visibility Wind Dir Wind Speed Gust Speed Precip Events Conditions
12:56 AM 66.9 °F - 66.0 °F 97% 30.12 in 10.0 mi Calm Calm - N/A   Clear
1:56 AM 66.9 °F - 66.0 °F 97% 30.11 in 1.8 mi Calm Calm - N/A   Clear
2:00 AM 66.2 °F - 66.2 °F 100% 30.12 in 0.8 mi NE 3.5 mph - N/A   Clear
2:05 AM 66.2 °F - 66.2 °F 100% 30.12 in 1.2 mi Calm Calm - N/A   Clear
2:14 AM 66.2 °F - 64.4 °F 94% 30.12 in 2.0 mi Calm Calm - N/A   Clear
2:24 AM 66.2 °F - 64.4 °F 94% 30.12 in 6.0 mi Calm Calm - N/A   Clear
2:56 AM 66.0 °F - 64.9 °F 96% 30.11 in 10.0 mi Calm Calm - N/A   Clear
3:20 AM 64.4 °F - 64.4 °F 100% 30.12 in 1.8 mi Calm Calm - N/A   Clear
3:30 AM 64.4 °F - 64.4 °F 100% 30.12 in 3.0 mi NNE 3.5 mph - N/A   Clear
3:56 AM 64.9 °F - 64.9 °F 100% 30.11 in 9.0 mi NNE 3.5 mph - N/A   Clear
4:56 AM 64.9 °F - 64.0 °F 97% 30.11 in 7.0 mi NE 4.6 mph - N/A   Clear
5:56 AM 64.0 °F - 64.0 °F 100% 30.11 in 8.0 mi NNE 4.6 mph - N/A   Clear
6:56 AM 64.9 °F - 64.0 °F 97% 30.13 in 8.0 mi NE 3.5 mph - N/A   Clear
7:56 AM 69.1 °F - 66.9 °F 93% 30.13 in 10.0 mi Calm Calm - N/A   Partly Cloudy
8:56 AM 73.9 °F - 68.0 °F 82% 30.13 in 10.0 mi ESE 5.8 mph - N/A   Clear
9:56 AM 78.1 °F - 69.1 °F 74% 30.13 in 10.0 mi Variable 3.5 mph - N/A   Clear
10:56 AM 80.1 °F 82.9 °F 69.1 °F 69% 30.12 in 10.0 mi Variable 3.5 mph - N/A   Partly Cloudy
11:56 AM 82.0 °F 85.5 °F 69.1 °F 65% 30.13 in 10.0 mi SE 8.1 mph - N/A   Scattered Clouds
12:56 PM 86.0 °F 90.1 °F 69.1 °F 57% 30.11 in 10.0 mi SSE 6.9 mph - N/A   Partly Cloudy
1:56 PM 86.0 °F 90.7 °F 70.0 °F 59% 30.09 in 10.0 mi Variable 4.6 mph - N/A   Scattered Clouds
2:56 PM 84.0 °F 87.8 °F 69.1 °F 61% 30.08 in 10.0 mi Calm Calm - N/A   Overcast
3:56 PM 86.0 °F 89.4 °F 68.0 °F 55% 30.04 in 10.0 mi WSW 3.5 mph - N/A   Partly Cloudy
4:56 PM 84.9 °F 89.4 °F 70.0 °F 61% 30.04 in 10.0 mi South 3.5 mph - N/A   Mostly Cloudy
5:56 PM 84.0 °F 89.0 °F 71.1 °F 65% 30.02 in 10.0 mi SE 3.5 mph - N/A   Partly Cloudy
6:56 PM 82.9 °F 87.5 °F 71.1 °F 67% 30.01 in 10.0 mi South 4.6 mph - N/A   Mostly Cloudy
7:56 PM 81.0 °F 84.4 °F 70.0 °F 69% 29.99 in 10.0 mi Calm Calm - N/A   Clear
8:56 PM 79.0 °F - 71.1 °F 77% 29.98 in 10.0 mi SE 3.5 mph - N/A   Clear
9:56 PM 78.1 °F - 71.1 °F 79% 30.00 in 10.0 mi SSE 3.5 mph - N/A   Overcast
10:05 PM 78.8 °F - 71.6 °F 78% 30.02 in 10.0 mi SSE 4.6 mph - N/A Thunderstorm Overcast
10:56 PM 69.1 °F - 66.9 °F 93% 30.02 in 10.0 mi Variable 4.6 mph - 0.00 in Rain , Thunderstorm Light Rain
11:13 PM 68.0 °F - 66.2 °F 94% 30.06 in 2.5 mi West 16.1 mph 28.8 mph 0.00 in Rain , Thunderstorm Heavy Thunderstorms and Rain
11:26 PM 68.0 °F - 66.2 °F 94% 30.04 in 6.0 mi Variable 6.9 mph - N/A Rain , Thunderstorm Thunderstorms and Rain
11:30 PM 69.8 °F - 66.2 °F 88% 30.04 in 10.0 mi North 5.8 mph - N/A Rain , Thunderstorm Thunderstorms and Rain
11:56 PM 68.0 °F - 66.9 °F 96% 30.01 in 10.0 mi East 10.4 mph - N/A Rain Light Rain